Location: Ebendorf
(52.1827°N, 11.5706°E)
Time: 08:54:14
(UTC+00:00)

Cosmos 1674 - Pass Details

Date: 15 May 2021
Orbit: 492 x 517 km, 82.5° (Epoch: 23 June)

Event Time Altitude Azimuth Distance (km) Brightness Sun altitude
Exits shadow 01:48:12 16° 228° (SW) 1,399 4.2 -11.1°
Maximum altitude 01:50:46 35° 288° (WNW) 852 3.6 -10.8°
Drops below altitude 10° 01:54:20 10° 355° (N) 1,752 6.1 -10.5°
Sets 01:56:36 0° 5° (N) 2,640 7.3 -10.2°
